Погода Атырау

Погода Атырау : погода сейчас, прогноз погоды и архив. Всё, что Вы хотите узнать о погоде Атырау!

Хотите узнать прогноз погоды в Атырау? Тогда Вам сюда: Погода в Атырау

Поиск расширенной информации на нашем сайте:

Другие новости

Новости СМИ2

Главная страница сайта

Новости сайта

02.10.2013

Напоминаем, что на нашем новом сайте вы можете получить высокодетализированные прогнозы погоды по пунктам России, СНГ и мира (включающие важные для авиации метеовеличины, такие как направление и скорость ветра, видимость, явления погоды, количество и форма облачности, нижняя и верхняя граница облачности), а также ознакомиться с разнообразными материалами по авиационной метеорологии и подборкой полезных ссылок на эту тему.

Сайт Метеоцентр.Азия посвящён разработке технологий оптимизации авиаметеорологического обслуживания, включая проектирование и перспективное создание нескольких автоматизированных авиаметеорологических систем:
- система выпуска высокодетальных прогностических карт явлений погоды для нижнего воздушного пространства по России и ближнему зарубежью;
- система верификации прогнозов TAF (выпускаемых синоптиками официальных АМСГ РФ и ближнего зарубежья) и AUTOTAF (выпускаемых сайтом Метеоцентр.Азия) - выявление ошибок, онлайн-сопоставление с фактической погодой METAR, автоматическое внесение коррективов в прогнозы при резком отклонении фактической погоды от прогноза, подсчёт оправдываемости прогнозов по элементам и в целом;
- система обработки, анализа и отображения авиаметеорологической информации для применения провайдерами метеорологической информации.

Рекомендуем: Здесь. Продажа реактивов для бассейна. Предложение.

Погода Атырау - сегодня

Время (UTC), дата Ветер
(°,м/с) 
Видим.   Явления Облачность Т
(°С)
Тd
(°С)
f(%) Тe
(°С)
Pmin
(гПа)
dP
(гПа)
Po
(мм)
O2
(г/м3)
Тmin Tmax R s Состояние
почвы
06 20.06.17 240 (ЮЗ) 20000 м    4/0 верхняя 
[Ci ing]
+27.4 +8.8 31 +27  1007.5  -0.7  757  276  +18.3         
09 20.06.17 210 (ЮЗ) 20000 м    8/4 600 м верхняя 
[Cu hum|Cs]
+28.8 +10.5 32 +30  1006.3  -1.2  756  274           
12 20.06.17 230 (ЮЗ) 20000 м    8/3 600 м верхняя 
[Cu hum|Ci ing]
+29.1 +9.7 30 +30  1005.4  -0.9  756  273           
15 20.06.17 240 (ЮЗ) 20000 м    8/0 верхняя 
[Cs]
+27.2 +8.2 30 +27  1005.1  -0.3  755  275    +30.5       
18 20.06.17 260 (З) 20000 м    6/0 верхняя 
[Cs]
+22.7 +14.6 60 +30  1005.8  0.8  756  278    +30.5       
21 20.06.17 290 (З) 20000 м    ясно 
+21.8 +12.7 56 +27  1005.8  756  280           
00 21.06.17 360 (С) 20000 м    ясно 
+19.1 +11.4 61 +24  1004.3  -1.5  755  282           
03 21.06.17 050 (СВ) 20000 м    6/0 средняя, верхняя 
[Ac trans|Ci fib]
+23.3 +7 35 +23  1004.6  0.3  755  279           
06 21.06.17 180 (Ю) 20000 м    8/0 средняя, верхняя 
[Ac trans|Ci fib]
+30.2 +5 20 +30  1004.2  -0.5  755  273  +18.4         
09 21.06.17 340 (С) 20000 м    9/8 1000 м верхняя 
[Cu med, cong|Ci fib]
+30.6 +2.9 17 +31  1003.4  -0.8  754  273           
12 21.06.17 230 (ЮЗ) 20000 м    9/8 1000 м кучево-дожд., средняя 
[Cb calv|Ac trans]
+28.5 +9.3 30 +29  1003.2  -0.2  754  274           
15 21.06.17 260 (З) 20000 м    8/4 1000 м кучево-дожд., средняя, верхняя 
[Cb calv|Ac trans|Ci ing]
+29.4 +11.2 32 +32  1002.5  -0.7  753  272    +31.9       
18 21.06.17 290 (З) 20000 м    6/3 1000 м кучево-дожд., средняя 
[Cb calv|Ac trans]
+25.4 +13.7 48 +32  1003.1  0.6  754  275    +31.9       
21 21.06.17 260 (З) 20000 м    5/3 1000 м средняя 
[Cu med, cong|Ac trans]
+20.8 +5.3 36 +21  1003.6  0.6  754  282           
00 22.06.17 310 (СЗ) 20000 м    4/4 1000 м кучево-дожд. 
[Cb cap]
+19 +8 49 +21  1003.6  754  283           
03 22.06.17 320 (СЗ) 20000 м    4/0 средняя, верхняя 
[Ac cast|Ci fib]
+20.9 +7.8 43 +21  1003.7  0.1  754  281  +18.9        сухая 
06 22.06.17 190 (Ю) 20000 м    8/5 1000 м кучево-дожд., верхняя 
[Cb calv|Ci fib]
+30.7 +5.6 21 +31  1003.8  754  272  +18.9         
09 22.06.17 240 (ЮЗ) 20000 м  {ливн. осадки}  9/6 600 м кучево-дожд., верхняя 
[Cb cap|Ci ing]
+31.6 +9.3 25 +32  1003.6  -0.2  754  271           
12 22.06.17 240 (ЮЗ) 20000 м  гроза без осадков{ливн. осадки}  8/8 600 м кучево-дожд. 
[Cb cap]
+31.1 +11.8 31 +35  1002.5  -1.1  753  270           
15 22.06.17 320 (СЗ) 20000 м  гроза без осадков  8/8 600 м кучево-дожд. 
[Cb cap]
+28.7 +13.2 39 +34  1003.7  1.2  754  273    +33.8  0.0     
18 22.06.17 340 (С) 10 км  слаб. ливневой дождь{гроза}  8/6 600 м кучево-дожд., средняя 
[Cb cap|Ac cuf]
+20.1 +17.2 83 +33  1005.9  2.3  756  280    +3.3  0.0     
21 22.06.17 280 (З) 10 км  {ливн. осадки}  8/4 600 м кучево-дожд., средняя 
[Cb cap|Ac cuf]
+20.5 +15.2 72 +29  1005.7  -0.2  756  280           
00 23.06.17 300 (СЗ) 10 км  {ливн. осадки}  8/3 600 м кучево-дожд., средняя 
[Cb cap|Ac trans]
+20.4 +15 71 +29  1005.9  0.2  756  280           
03 23.06.17 280 (З) 10 км    9/4 600 м кучево-дожд., средняя 
[Cb cap|Ac trans]
+20 +16.2 79 +31  1007.3  1.4  757  281  +19.6        влажная 
06 23.06.17 010 (С) 20000 м  {ливн. осадки}  8/3 600 м кучево-дожд., средняя, верхняя 
[Cb calv|Ac trans|Cs]
+23.9 +15.4 59 +33  1008.8  1.5  758  278  +1.9       
Время (UTC), дата Ветер
(°,м/с) 
Видим.   Явления Облачность Т
(°С)
Тd
(°С)
f(%) Тe
(°С)
Pmin
(гПа)
dP
(гПа)
Po
(мм)
O2
(г/м3)
Тmin Tmax R s Состояние
почвы

Для получения пояснительной информации подведите курсор к названию столбца.

ПОГОДА Атырау - архив

Всё, что Вы хотите узнать о погоде Атырау - удобно и подробно!

Выберите нужную дату (начиная с 1 января 2015* года) и нажмите кнопку "Найти".
Будут отображены архивные сводки погоды по пункту Атырау, начиная с указанной даты.


Отображать данные в формате CSV (для использования в таблицах Excel)


Внимание! Наш архив погоды предназначен исключительно для личного некоммерческого использования в познавательных целях. Если Вам необходимы официальные справки о состоянии погоды (для производственных, юридических, коммерческих и т.п. целей), обращайтесь в органы Росгидромета.

*Примечание: данная дата относится к архиву по метеостанциям СССР (Россия, СНГ, Балтия).
Архив по метеостанциям Зарубежной Европы и Азии (кроме Китая) хранится 10 дней, по другим регионам земного шара (Китай, Африка, Америка, Австралия, Океания) - 1 день.

Атырау - район местоположения метеостанции


Название, широта, долгота, высота метеостанции:
Атырау (город) 47.1°ш. 51.7°д. -23 м над ур. моря [Казахстан]

Дополнительная информация

В oтличие oт бoльшинства пoгoдных сайтoв мы публикуем пoдрoбную метеoинфoрмацию в детальнoм прoфессиoнальнoм фoрмате.

Характеристики температуры и влажнoсти вoздуха измеряются на высoте 2 м в тени вдали oт зданий и деревьев.
Скoрoсть ветра измеряется на высoте 10 м (на урoвне рoста челoвека скoрoсть ветра ниже в 1.5-2 раза). Если метеoстанция нахoдится в гoрoде или в лесу, тo скoрoсть ветра занижена на 2-4 м/с пo сравнению с oткрытым местoм. Скoрoсть ветра над акватoриями крупных рек и oзёр, а также на вершинах хoлмoв на 2-5 м/с выше, чем в oбычных услoвиях.
Атмoсфернoе давление в разных тoчках местнoсти мoжет значительнo oтличаться oт давления на метеoстанции, в зависимoсти oт услoвий рельефа (при пoдъёме на 10 м давление пoнижается примернo на 1 мм рт.ст.).